Location: Central Coast
(33.3208°S, 151.2336°E)
Time: 07:27:28
(UTC+10:00)

Vanguard 2 Rocket - Visible Passes

Search period start: 18 July 2018 00:00
Search period end: 28 July 2018 00:00
Orbit: 554 x 3327 km, 32.9° (Epoch: 17 July)

Date Brightness Start Highest point End Pass type
(mag) Time Alt. Az. Time Alt. Az. Time Alt. Az.
18 Jul 7.5 19:22:23 10° W 19:30:36 49° NNW 19:31:40 44° N visible
19 Jul 7.7 18:20:37 10° W 18:31:12 68° NNW 18:35:53 18° ENE visible
19 Jul 9.3 20:39:05 10° W 20:41:43 16° WNW 20:41:43 16° WNW visible
20 Jul 8.1 17:18:22 10° W 17:31:23 81° NNW 17:38:23 10° ENE visible
20 Jul 8.2 19:37:03 10° W 19:44:33 33° NW 19:45:59 30° N visible
21 Jul 8.2 18:35:05 10° W 18:45:20 52° NNW 18:50:18 16° NE visible
22 Jul 8.3 17:32:47 10° W 17:45:40 69° NNW 17:52:41 10° ENE visible
22 Jul 8.9 19:52:12 10° W 19:58:12 21° NW 20:00:31 17° NNW visible
23 Jul 8.8 18:49:42 10° W 18:59:11 37° NW 19:04:57 10° NNE visible
24 Jul 8.7 17:47:14 10° W 17:59:45 54° NNW 18:06:45 10° NE visible
24 Jul 9.5 20:08:49 10° WNW 20:11:37 12° NW 20:14:02 10° NNW visible
25 Jul 9.3 19:04:45 10° W 19:12:45 25° NW 19:18:06 10° N visible
26 Jul 9.3 18:01:50 10° W 18:13:32 40° NW 18:20:28 10° NNE visible
27 Jul 9.8 19:20:53 10° W 19:26:04 15° NW 19:30:07 10° NNW visible
